SBI1558 EDDL-EDDF

Flight info

Callsign SBI1558
Flight time N/A
Altitude 23000
Route COL6T/23L COL T911 ROLIS ROLI5A
Aircraft A20N/M-SDE2E3FGHIJ1RWXY/LB1

Departure

Time N/A
Airport Düsseldorf Airport (EDDL)

Arrival

Time 2026-05-04 20:53
Airport Frankfurt Main Airport (EDDF)
Time Latitude Longitude Altitude Speed Heading
2026-05-04 20:36 50.28315 8.09982 12970 ft 391 kts 139°
2026-05-04 20:36 50.26437 8.12789 12970 ft 359 kts 139°
2026-05-04 20:36 50.24651 8.15444 12973 ft 357 kts 139°
2026-05-04 20:36 50.22840 8.18119 12967 ft 357 kts 139°
2026-05-04 20:37 50.21025 8.20793 12969 ft 368 kts 139°
2026-05-04 20:37 50.19092 8.23631 12965 ft 394 kts 139°
2026-05-04 20:37 50.17040 8.26646 12960 ft 411 kts 139°
2026-05-04 20:37 50.14964 8.29704 12960 ft 410 kts 139°
2026-05-04 20:38 50.13088 8.33067 12965 ft 415 kts 126°
2026-05-04 20:38 50.11801 8.37107 12962 ft 420 kts 111°
2026-05-04 20:38 50.11208 8.41569 12962 ft 425 kts 96°
2026-05-04 20:38 50.11355 8.46171 12963 ft 428 kts 81°
2026-05-04 20:39 50.12211 8.50630 12992 ft 431 kts 69°
2026-05-04 20:39 50.13415 8.54918 12989 ft 432 kts 67°
2026-05-04 20:39 50.14645 8.59191 12988 ft 432 kts 68°
2026-05-04 20:39 50.15809 8.63488 12750 ft 428 kts 69°
2026-05-04 20:40 50.16902 8.67793 12182 ft 425 kts 70°
2026-05-04 20:40 50.17941 8.72069 11534 ft 418 kts 71°
2026-05-04 20:40 50.18919 8.76175 11238 ft 396 kts 71°
2026-05-04 20:40 50.19856 8.80137 10337 ft 387 kts 71°
2026-05-04 20:41 50.20789 8.84116 8952 ft 392 kts 71°
2026-05-04 20:41 50.21706 8.88038 8388 ft 374 kts 71°
2026-05-04 20:41 50.22573 8.91735 8112 ft 350 kts 71°
2026-05-04 20:41 50.23384 8.95192 7891 ft 329 kts 71°
2026-05-04 20:42 50.24146 8.98452 7719 ft 310 kts 71°
2026-05-04 20:42 50.24867 9.01545 7583 ft 295 kts 72°
2026-05-04 20:42 50.25556 9.04506 7383 ft 287 kts 72°
2026-05-04 20:42 50.26232 9.07421 7019 ft 285 kts 72°
2026-05-04 20:43 50.26907 9.10330 6647 ft 283 kts 72°
2026-05-04 20:43 50.27572 9.13199 6165 ft 279 kts 71°
2026-05-04 20:43 50.28227 9.16034 5625 ft 275 kts 71°
2026-05-04 20:43 50.28637 9.18905 5198 ft 267 kts 91°
2026-05-04 20:44 50.28248 9.21735 5046 ft 271 kts 117°
2026-05-04 20:44 50.27116 9.24054 4998 ft 270 kts 135°
2026-05-04 20:44 50.25584 9.25666 4990 ft 267 kts 161°
2026-05-04 20:44 50.23758 9.25966 4990 ft 267 kts 189°
2026-05-04 20:45 50.22057 9.24878 4992 ft 267 kts 217°
2026-05-04 20:45 50.20886 9.22655 4990 ft 268 kts 245°
2026-05-04 20:45 50.20238 9.19926 4992 ft 269 kts 250°
2026-05-04 20:45 50.19620 9.17174 4995 ft 268 kts 250°
2026-05-04 20:46 50.19014 9.14494 4985 ft 254 kts 250°
2026-05-04 20:46 50.18442 9.12002 4985 ft 240 kts 249°
2026-05-04 20:46 50.17886 9.09612 4991 ft 236 kts 249°
2026-05-04 20:46 50.17317 9.07187 4987 ft 237 kts 249°
2026-05-04 20:47 50.16753 9.04792 4987 ft 235 kts 249°
2026-05-04 20:47 50.16189 9.02389 4983 ft 236 kts 249°
2026-05-04 20:47 50.15625 8.99991 4989 ft 236 kts 249°
2026-05-04 20:47 50.15062 8.97593 4986 ft 235 kts 249°
2026-05-04 20:48 50.14501 8.95205 4989 ft 235 kts 249°
2026-05-04 20:48 50.13941 8.92796 4988 ft 235 kts 249°
2026-05-04 20:48 50.13388 8.90400 4991 ft 235 kts 250°
2026-05-04 20:48 50.12844 8.88020 4987 ft 228 kts 249°
2026-05-04 20:49 50.12313 8.85787 4931 ft 211 kts 249°
2026-05-04 20:49 50.11804 8.83652 4709 ft 216 kts 249°
2026-05-04 20:49 50.11452 8.82175 4493 ft 213 kts 249°
2026-05-04 20:49 50.10938 8.80016 4183 ft 212 kts 249°
2026-05-04 20:50 50.10427 8.77871 3878 ft 211 kts 249°
2026-05-04 20:50 50.09916 8.75729 3586 ft 211 kts 249°
2026-05-04 20:50 50.09414 8.73623 3295 ft 210 kts 250°
2026-05-04 20:50 50.08908 8.71499 2993 ft 209 kts 250°
2026-05-04 20:51 50.08403 8.69378 2707 ft 209 kts 250°
2026-05-04 20:51 50.07878 8.67180 2394 ft 215 kts 250°
2026-05-04 20:51 50.07372 8.65057 2085 ft 203 kts 250°
2026-05-04 20:51 50.06900 8.63079 1802 ft 192 kts 251°
2026-05-04 20:52 50.06455 8.61214 1555 ft 177 kts 251°
2026-05-04 20:52 50.06043 8.59486 1294 ft 165 kts 250°
2026-05-04 20:52 50.05659 8.57878 1074 ft 150 kts 250°
2026-05-04 20:52 50.05314 8.56434 842 ft 136 kts 250°
2026-05-04 20:53 50.04998 8.55109 661 ft 130 kts 250°
2026-05-04 20:53 50.04679 8.53787 465 ft 129 kts 249°
2026-05-04 20:53 50.04367 8.52498 356 ft 120 kts 249°
2026-05-04 20:53 50.04154 8.51625 344 ft 36 kts 238°
2026-05-04 20:54 50.04079 8.51508 335 ft 17 kts 219°
2026-05-04 20:54 50.04032 8.51449 339 ft 0 kts 219°
2026-05-04 20:54 50.04032 8.51448 339 ft 1 kts 219°
2026-05-04 20:54 50.04027 8.51442 339 ft 0 kts 218°
2026-05-04 20:55 50.04026 8.51441 339 ft 1 kts 218°
2026-05-04 20:55 50.04006 8.51417 339 ft 6 kts 218°
2026-05-04 20:55 50.03951 8.51369 333 ft 11 kts 189°
2026-05-04 20:55 50.03906 8.51457 335 ft 12 kts 79°
2026-05-04 20:56 50.03936 8.51591 334 ft 14 kts 70°
2026-05-04 20:56 50.03975 8.51751 336 ft 17 kts 68°
2026-05-04 20:56 50.04020 8.51919 345 ft 18 kts 67°
2026-05-04 20:56 50.04068 8.52109 352 ft 20 kts 70°
2026-05-04 20:57 50.04115 8.52318 351 ft 22 kts 71°
2026-05-04 20:57 50.04169 8.52550 353 ft 23 kts 69°
2026-05-04 20:57 50.04224 8.52783 355 ft 23 kts 69°
2026-05-04 20:57 50.04279 8.53011 358 ft 22 kts 69°
2026-05-04 20:58 50.04334 8.53241 362 ft 23 kts 69°
2026-05-04 20:58 50.04387 8.53475 367 ft 23 kts 72°
2026-05-04 20:58 50.04411 8.53727 367 ft 25 kts 85°
2026-05-04 20:58 50.04427 8.53981 373 ft 23 kts 84°
2026-05-04 20:59 50.04443 8.54235 372 ft 27 kts 85°
2026-05-04 20:59 50.04431 8.54577 352 ft 28 kts 113°
2026-05-04 20:59 50.04344 8.54738 354 ft 18 kts 144°
2026-05-04 20:59 50.04227 8.54818 353 ft 20 kts 160°
2026-05-04 21:00 50.04086 8.54898 352 ft 23 kts 160°